Info: MOHON PERHATIKAN REK AKTIF SEBELUM TRANSFER DANA..BCA BNI BRI CIMBNIAGA MANDIRI PERMATA ONLINE - TELAH HADIR BANK PERMATA & KOSPIN JASA UNTUK MEMPERMUDAH DEPOSIT DAN WITHDRAW ANDA..Dapatkan Kesempatan Bonus Lucky spin & Special Mistery Box Dengan Aktif Bermain Setiap Hari di POKER88.ASIA & Akses selalu melalui website resmi kami http://kitapk88.asia
REGISTER JACKPOT DEPOSIT REFERRAL DOWNLOAD PROMOSI CONTACT VIP
JACKPOT



   

Jackpot Winner Domino

Jackpot hanya dapat di beli di awal sebelum periode tersebut berjalan dan jika berhasil maka anda dapat melihat di sisi kiri bawah atau kiri atas akan terdapat notifikasi bahwa jackpot anda berhasil di beli.

Jika anda membeli jackpot di tengah permainan maka pembelian jackpot akan berlaku untuk periode selanjutnya.

Ikutilah global jackpot yang tersedia di system kami, dengan system jackpot terbaru dan pertama di indonesia, anda dapat membeli jackpot dengan harga 100 rupiah saja dan menangkan hadiahnya hingga puluhan juta rupiah.

Jackpot bukanlah suatu keharusan untuk dibeli, namun kami memberikan suatu fitur tambahan untuk member tercinta dari www.poker88.io.

Terdapat tiga pilihan harga jackpot yang bisa anda beli yaitu :100,500 dan 1000 rupiah.

Hadiah dari Multi jackpot system www.poker88.io

  1. Murni Kecil x 50 harga jackpot yang anda beli.
      (contoH:anda membeli 1000 maka:1000 X 50 = 50.000)
  2. Murni Besar x 50 harga jackpot yang anda beli
      (contoH:anda membeli 1000 maka:1000 X 50 = 50.000)
  3. BALAK x 100 harga jackpot yang anda beli
      (contoH:anda membeli 1000 maka:1000 X 100 = 100.000)
  4. ENAM DEWA x 6666 harga jackpot yang anda beli
      (contoH:anda membeli 1000 maka:1000 X 6666 = 6.666.000)

Demikian adalah penjelasan dari Multi Jackpot www.poker88.io terima kasih dan selamat bermain salam hoki dari kami


Jackpot Winner

TOP ENAM DEWA
No. Tanggal Nama Price Win
1 14/12 17:55 LOOSERRR murni enam 666,600
2 14/12 17:09 FERMAN21 murni enam 3,333,000
3 14/12 15:57 KALJU420 murni enam 3,333,000
4 14/12 15:56 SIVA96 murni enam 6,666,000
5 14/12 14:27 IPOEL555 murni enam 3,333,000
TOP BALAK
No. Tanggal Nama Price Win
1 14/12 17:55 TOTO8894 balak 50,000
2 14/12 17:52 D3650CEC balak 50,000
3 14/12 17:49 TOTO8894 balak 50,000
4 14/12 17:48 S5RTWFYQPK balak 50,000
5 14/12 17:46 BACEGER balak 50,000
LATEST JACKPOT
No. Tanggal Nama Price Win
1 14/12 17:55 HA24 lucky99 50,000
2 14/12 17:55 JEKJOS99 murni kecil 25,000
3 14/12 17:55 TOTO8894 balak 50,000
4 14/12 17:55 LOOSERRR murni enam 666,600
5 14/12 17:54 INCESS888 lucky99 10,000
6 14/12 17:53 MAKIMO81 murni kecil 5,000
7 14/12 17:52 S5RTWFYQPK murni besar 25,000
8 14/12 17:52 GIT00 murni besar 50,000
9 14/12 17:52 XPALKORX murni besar 50,000
10 14/12 17:52 D3650CEC balak 50,000
11 14/12 17:51 TUTOD3D1 murni besar 50,000
12 14/12 17:51 MRX145 murni besar 5,000
13 14/12 17:50 BADAK_90 murni besar 5,000
14 14/12 17:50 FORTUNACUA murni besar 25,000
15 14/12 17:50 KOCOLAN99 murni besar 50,000
16 14/12 17:49 OMRITG murni kecil 50,000
17 14/12 17:49 TOTO8894 balak 50,000
18 14/12 17:49 BRIYAN709 murni besar 50,000
19 14/12 17:49 BE4BF9FC murni besar 5,000
20 14/12 17:48 RNDNGTEMPE murni besar 25,000
21 14/12 17:48 S5RTWFYQPK balak 50,000
22 14/12 17:48 PKSC0RE88 murni kecil 25,000
23 14/12 17:48 GIBRAN1999 lucky99 25,000
24 14/12 17:47 JUHOW murni kecil 5,000
25 14/12 17:47 J0K0WIPAW murni besar 25,000
26 14/12 17:46 GARES68 murni kecil 50,000
27 14/12 17:46 DIAN112 murni kecil 50,000
28 14/12 17:46 BACEGER balak 50,000
29 14/12 17:46 MRX145 balak 10,000
30 14/12 17:46 BADAK_90 murni kecil 5,000
31 14/12 17:46 UUV6YY5GZF murni kecil 50,000
32 14/12 17:46 FERLY123 murni besar 25,000
33 14/12 17:45 JURI8888 murni kecil 50,000
34 14/12 17:45 KUSAM14 murni besar 5,000
35 14/12 17:45 BERHARAP00 murni besar 25,000
36 14/12 17:45 WANDA75 murni besar 50,000
37 14/12 17:45 BANGJO90 murni besar 5,000
38 14/12 17:45 OTIES33 murni besar 50,000
39 14/12 17:44 WHS murni besar 25,000
40 14/12 17:44 FADEAUMI murni kecil 50,000
41 14/12 17:44 BAIKOLE99 murni besar 50,000
42 14/12 17:43 ADARI12345 balak 100,000
43 14/12 17:42 JACKBRATA murni kecil 50,000
44 14/12 17:41 ZUKY005 murni kecil 50,000
45 14/12 17:41 ONTEL murni kecil 25,000
46 14/12 17:41 HERMI80 murni besar 5,000
47 14/12 17:41 CAPIE89 murni besar 50,000
48 14/12 17:41 A502A11F murni besar 50,000
49 14/12 17:41 BAJI55 murni kecil 25,000
50 14/12 17:41 ROTIBAKAR8 balak 100,000
Dewa.FM